K3RTA-2 Weather Reports


Display with metric or nautical units.
time (UTC)temp
F
wind
direction
speed
MPH
gust
MPH
rain 1hr
in
rain 24hr
in
rain mn
in
humidity
%
barometer
mb
20260904165004 86 143 1.0 3.0 0.00 0.69 0.00 77 1012.9
20260904164004 85 21 0.0 5.0 0.00 0.69 0.00 77 1013.0
20260904163504 85 304 1.0 6.0 0.00 0.69 0.00 77 1013.1
20260904162504 86 9 1.0 5.0 0.00 0.69 0.00 78 1013.1
20260904162005 85 78 1.0 5.0 0.00 0.69 0.00 79 1013.1
20260904161504 84 346 1.0 6.0 0.00 0.69 0.00 78 1013.2
20260904161005 85 356 2.0 6.0 0.00 0.69 0.00 80 1013.2
20260904160505 84 45 1.0 3.0 0.00 0.69 0.00 80 1013.3
20260904160004 84 286 0.0 6.0 0.00 0.69 0.00 81 1013.2
20260904155504 84 333 2.0 6.0 0.00 0.69 0.69 81 1013.3
20260904155005 84 23 2.0 5.0 0.00 0.69 0.69 80 1013.2
20260904154004 83 345 0.0 7.0 0.00 0.69 0.69 83 1013.0
20260904153504 83 6 1.0 7.0 0.00 0.69 0.69 84 1013.0
20260904152004 82 17 2.0 7.0 0.00 0.69 0.69 84 1013.3
20260904151503 82 34 1.0 3.0 0.00 0.69 0.69 84 1013.3
20260904151004 82 24 2.0 7.0 0.00 0.69 0.69 84 1013.2
20260904150504 81 16 2.0 7.0 0.00 0.69 0.69 84 1013.3
20260904145004 81 4 3.0 7.0 0.00 0.69 0.69 84 1013.4
20260904144504 82 13 1.0 6.0 0.00 0.69 0.69 85 1013.4
20260904143504 81 8 1.0 12.0 0.00 0.69 0.69 86 1013.4
20260904143004 80 45 4.0 12.0 0.00 0.69 0.69 86 1013.4
20260904142504 81 346 0.0 5.0 0.00 0.69 0.69 88 1013.4
20260904142004 80 350 2.0 6.0 0.00 0.69 0.69 89 1013.4
20260904141504 80 265 0.0 6.0 0.00 0.69 0.69 89 1013.4
20260904141004 79 358 1.0 7.0 0.00 0.69 0.69 89 1013.3
20260904140504 79 11 0.0 7.0 0.00 0.69 0.69 91 1013.2
20260904140004 79 341 1.0 5.0 0.00 0.69 0.69 91 1013.2
20260904135504 79 348 2.0 5.0 0.00 0.69 0.69 91 1013.1
20260904135004 79 264 1.0 5.0 0.00 0.69 0.69 93 1013.0
20260904134504 78 349 1.0 5.0 0.00 0.69 0.69 93 1013.0
20260904134005 77 303 1.0 6.0 0.00 0.69 0.69 94 1013.0
20260904133504 77 343 1.0 6.0 0.00 0.69 0.69 95 1013.1
20260904133004 77 2 1.0 5.0 0.00 0.69 0.69 96 1013.2
20260904132504 76 311 0.0 3.0 0.00 0.69 0.69 96 1013.2
20260904132004 76 315 1.0 3.0 0.00 0.69 0.69 96 1013.3
20260904131504 76 316 0.0 3.0 0.00 0.69 0.69 97 1013.2
20260904131003 76 31 1.0 3.0 0.00 0.69 0.69 97 1013.3
20260904130503 76 355 1.0 3.0 0.00 0.69 0.69 97 1013.2
20260904130004 76 2 0.0 3.0 0.00 0.69 0.69 97 1013.2
20260904125505 75 335 1.0 5.0 0.00 0.69 0.69 97 1013.3
20260904125004 75 2 1.0 5.0 0.00 0.69 0.69 97 1013.4
20260904124504 75 26 0.0 5.0 0.00 0.69 0.69 98 1013.3
20260904123504 75 117 0.0 2.0 0.00 0.69 0.69 98 1013.2
20260904123004 74 347 0.0 2.0 0.00 0.69 0.69 98 1013.3
20260904122504 74 89 0.0 2.0 0.00 0.69 0.69 98 1013.3
20260904121004 73 97 1.0 3.0 0.00 0.69 0.69 98 1013.3
20260904120504 73 36 0.0 2.0 0.00 0.69 0.69 98 1013.3
20260904120004 73 252 0.0 1.0 0.00 0.69 0.69 98 1013.2
20260904115505 73 50 0.0 3.0 0.00 0.69 0.69 98 1013.2
20260904115004 73 319 0.0 3.0 0.00 0.69 0.69 98 1013.2
20260904114503 73 262 0.0 3.0 0.00 0.69 0.69 98 1013.1
20260904113504 73 75 0.0 3.0 0.00 0.69 0.69 98 1013.3
20260904113004 73 144 0.0 3.0 0.00 0.69 0.69 98 1013.3
20260904112504 73 223 1.0 3.0 0.00 0.69 0.69 98 1013.4
20260904110504 72 87 0.0 3.0 0.00 0.69 0.69 98 1013.1
20260904110004 72 336 0.0 2.0 0.00 0.69 0.69 98 1013.0
20260904104504 72 73 0.0 2.0 0.00 0.69 0.69 98 1012.6
20260904104004 71 117 0.0 2.0 0.00 0.69 0.69 98 1012.4
20260904103504 71 125 0.0 1.0 0.00 0.69 0.69 98 1012.4
20260904103005 71 128 0.0 1.0 0.00 0.69 0.69 98 1012.3
20260904102504 72 220 0.0 1.0 0.00 0.69 0.69 98 1012.3
20260904101504 72 157 1.0 2.0 0.00 0.69 0.69 98 1012.2
20260904101004 72 135 0.0 2.0 0.00 0.69 0.69 98 1012.4
20260904100504 72 132 0.0 3.0 0.00 0.69 0.69 98 1012.5
20260904100004 72 141 1.0 3.0 0.00 0.69 0.69 98 1012.4
20260904095504 72 117 0.0 1.0 0.00 0.69 0.69 98 1012.5
20260904095004 72 117 0.0 1.0 0.00 0.69 0.69 98 1012.4
20260904094504 72 117 0.0 1.0 0.00 0.69 0.69 98 1012.4
20260904093004 72 129 0.0 1.0 0.00 0.69 0.69 98 1012.3
20260904092005 72 130 0.0 0.0 0.00 0.69 0.69 98 1012.4
20260904090504 72 131 0.0 0.0 0.00 0.69 0.69 98 1012.5
20260904090004 72 131 0.0 0.0 0.00 0.69 0.69 98 1012.4
20260904085504 72 131 0.0 0.0 0.00 0.69 0.69 98 1012.4
20260904085004 72 131 0.0 0.0 0.00 0.69 0.69 98 1012.3
20260904084504 72 131 0.0 0.0 0.00 0.69 0.69 98 1012.2
20260904084005 72 130 0.0 0.0 0.00 0.69 0.69 98 1012.2
20260904083504 72 130 0.0 0.0 0.00 0.71 0.69 98 1012.3
20260904083004 72 135 0.0 1.0 0.00 0.72 0.69 98 1012.3
20260904082504 72 136 0.0 1.0 0.01 0.72 0.69 98 1012.5
20260904082005 72 133 0.0 1.0 0.01 0.72 0.69 98 1012.7
20260904081505 72 196 0.0 2.0 0.01 0.72 0.69 98 1012.9
20260904081004 72 153 0.0 2.0 0.01 0.72 0.69 98 1013.0
20260904080504 72 121 0.0 1.0 0.02 0.72 0.69 98 1012.9
20260904075004 72 228 0.0 2.0 0.05 0.87 0.69 98 1013.2
20260904074504 72 163 0.0 2.0 0.07 0.87 0.69 98 1013.1
20260904074003 72 236 0.0 1.0 0.09 0.87 0.69 98 1013.2
20260904073504 72 247 0.0 1.0 0.11 0.87 0.69 98 1013.3
20260904073004 72 262 0.0 1.0 0.12 0.87 0.69 98 1013.4
20260904072504 72 262 0.0 2.0 0.12 0.86 0.68 98 1013.5
20260904072005 72 243 0.0 2.0 0.13 0.86 0.68 98 1013.4
20260904071504 72 200 0.0 2.0 0.13 0.86 0.68 98 1013.4
20260904071004 72 159 0.0 0.0 0.14 0.86 0.68 97 1013.6
20260904070504 72 157 0.0 0.0 0.13 0.85 0.67 98 1013.4
20260904065504 72 160 0.0 2.0 0.16 0.83 0.65 97 1013.4
20260904065004 72 161 0.0 2.0 0.21 0.82 0.64 97 1013.5
20260904064504 72 162 0.0 2.0 0.24 0.80 0.62 97 1013.7
20260904064004 72 172 0.0 1.0 0.44 0.78 0.60 97 1013.9
20260904063504 72 166 0.0 1.0 0.58 0.76 0.58 97 1014.1
20260904063004 72 150 0.0 1.0 0.57 0.75 0.57 97 1014.2
20260904062503 72 155 0.0 1.0 0.56 0.74 0.56 97 1014.2
20260904062005 72 196 0.0 3.0 0.55 0.73 0.55 97 1014.3
20260904061504 72 135 0.0 3.0 0.55 0.73 0.55 97 1014.7
20260904061004 72 153 0.0 3.0 0.54 0.72 0.54 97 1015.0
20260904060504 72 337 0.0 8.0 0.54 0.72 0.54 97 1015.2
20260904060003 73 18 2.0 13.0 0.53 0.71 0.53 97 1015.4
20260904055005 73 332 3.0 12.0 0.43 0.62 0.43 96 1015.2
20260904054504 74 347 3.0 24.0 0.38 0.59 0.38 96 1015.2
20260904053504 77 326 5.0 13.0 0.00 0.21 0.00 97 1014.0
20260904053004 77 135 0.0 0.0 0.00 0.21 0.00 97 1013.2
20260904052503 77 134 0.0 0.0 0.00 0.21 0.00 97 1012.8
20260904052004 77 134 0.0 0.0 0.00 0.21 0.00 97 1012.5
20260904051503 77 134 0.0 0.0 0.00 0.21 0.00 97 1012.5
20260904051005 77 134 0.0 0.0 0.00 0.21 0.00 97 1012.6
20260904050504 77 134 0.0 0.0 0.00 0.21 0.00 97 1012.7
20260904045504 77 134 0.0 0.0 0.00 0.21 0.00 97 1012.7
20260904045004 77 134 0.0 0.0 0.00 0.21 0.00 97 1012.8
20260904044503 77 134 0.0 0.0 0.00 0.21 0.00 97 1012.9
20260904044004 77 134 0.0 0.0 0.00 0.21 0.00 97 1013.0
20260904043504 77 134 0.0 0.0 0.00 0.21 0.00 97 1012.9
20260904043004 77 134 0.0 0.0 0.00 0.21 0.00 97 1012.6
20260904042504 77 134 0.0 0.0 0.00 0.21 0.00 97 1012.7
20260904042004 77 134 0.0 0.0 0.00 0.21 0.00 97 1012.6
20260904041504 77 134 0.0 0.0 0.00 0.21 0.00 97 1012.6
20260904041004 77 134 0.0 0.0 0.00 0.21 0.00 97 1012.6
20260904040504 77 134 0.0 0.0 0.00 0.21 0.00 97 1012.7
20260904040004 77 134 0.0 0.0 0.00 0.21 0.00 97 1012.9
20260904035505 77 134 0.0 0.0 0.00 0.21 0.00 97 1013.1
20260904035004 78 134 0.0 0.0 0.00 0.21 0.00 97 1013.1
20260904034503 78 134 0.0 0.0 0.00 0.21 0.00 97 1013.2
20260904034004 78 134 0.0 0.0 0.00 0.21 0.00 97 1013.2
20260904033504 78 134 0.0 0.0 0.00 0.21 0.00 97 1013.5
20260904033004 78 134 0.0 0.0 0.00 0.21 0.00 97 1013.4
20260904032505 78 134 0.0 0.0 0.00 0.21 0.00 97 1013.5
20260904032004 78 134 0.0 0.0 0.00 0.21 0.00 97 1013.6
20260904031504 78 134 0.0 0.0 0.00 0.21 0.00 96 1013.7
20260904031005 78 134 0.0 0.0 0.00 0.21 0.00 96 1013.9
20260904030505 78 134 0.0 0.0 0.00 0.21 0.00 96 1013.8
20260904030004 78 134 0.0 0.0 0.00 0.21 0.00 96 1013.6
20260904025504 78 134 0.0 0.0 0.00 0.21 0.00 96 1013.6
20260904025005 78 134 0.0 0.0 0.00 0.21 0.00 96 1013.4
20260904024504 78 134 0.0 0.0 0.00 0.21 0.00 96 1013.5
20260904024004 78 134 0.0 0.0 0.00 0.21 0.00 96 1013.4
20260904023504 78 134 0.0 0.0 0.00 0.21 0.00 96 1013.4
20260904022504 78 135 0.0 0.0 0.00 0.21 0.00 96 1013.4
20260904022004 78 135 0.0 0.0 0.00 0.21 0.00 96 1013.4
20260904021505 79 135 0.0 0.0 0.00 0.21 0.00 96 1013.5
20260904021004 79 135 0.0 0.0 0.00 0.21 0.00 96 1013.6
20260904020504 79 135 0.0 0.0 0.00 0.21 0.00 96 1013.6
20260904020003 79 135 0.0 0.0 0.00 0.21 0.00 96 1013.5
20260904015504 79 132 0.0 0.0 0.00 0.21 0.00 96 1013.7
20260904015004 79 132 0.0 0.0 0.00 0.21 0.00 96 1013.8
20260904014504 79 132 0.0 0.0 0.00 0.21 0.00 96 1014.0
20260904014003 79 132 0.0 0.0 0.00 0.21 0.00 95 1014.1
20260904013004 79 131 0.0 0.0 0.00 0.21 0.00 95 1014.2
20260904012504 79 128 0.0 0.0 0.00 0.21 0.00 96 1014.1
20260904012004 79 95 0.0 0.0 0.00 0.21 0.00 95 1014.2
20260904011504 79 120 0.0 1.0 0.00 0.21 0.00 95 1014.2
20260904011005 79 120 0.0 1.0 0.00 0.21 0.00 95 1014.3
20260904010504 79 209 0.0 1.0 0.00 0.21 0.00 95 1014.4
20260904010004 79 209 0.0 1.0 0.00 0.21 0.00 95 1014.2
20260904005504 79 132 0.0 0.0 0.00 0.21 0.00 95 1014.3
20260904005003 79 157 0.0 0.0 0.00 0.21 0.00 95 1014.2
20260904004504 79 158 0.0 0.0 0.00 0.21 0.00 95 1014.2
20260904004004 79 158 0.0 0.0 0.00 0.21 0.00 95 1014.2
20260904003505 80 158 0.0 0.0 0.00 0.21 0.00 95 1014.1
20260904003004 80 158 0.0 0.0 0.00 0.21 0.00 95 1014.0
20260904002504 80 158 0.0 0.0 0.00 0.21 0.00 95 1014.0
20260904002004 80 158 0.0 0.0 0.00 0.21 0.00 95 1014.0
20260904001504 80 158 0.0 0.0 0.00 0.21 0.00 95 1013.9
20260904001003 80 158 0.0 0.0 0.00 0.21 0.00 94 1013.8
20260904000505 80 158 0.0 0.0 0.00 0.21 0.00 94 1013.6
20260904000005 80 158 0.0 0.0 0.00 0.21 0.00 94 1013.6
20260903235503 81 159 0.0 0.0 0.00 0.21 0.00 94 1013.4
20260903235004 81 155 0.0 0.0 0.00 0.21 0.00 93 1013.4
20260903234504 81 155 0.0 0.0 0.00 0.21 0.00 93 1013.4
20260903234004 82 155 0.0 0.0 0.00 0.21 0.00 92 1013.5
20260903233004 82 155 0.0 0.0 0.00 0.21 0.00 91 1013.5
20260903232504 82 155 0.0 0.0 0.00 0.21 0.00 91 1013.6
20260903232004 83 155 0.0 0.0 0.00 0.21 0.00 90 1013.5
20260903231504 83 155 0.0 0.0 0.00 0.21 0.00 90 1013.5
20260903231004 83 155 0.0 0.0 0.00 0.21 0.00 89 1013.6
20260903230505 84 155 0.0 0.0 0.00 0.21 0.00 89 1013.7
20260903230004 84 151 0.0 1.0 0.00 0.21 0.00 88 1013.6
20260903225505 84 115 0.0 1.0 0.00 0.21 0.00 88 1013.4
20260903224504 84 156 0.0 2.0 0.00 0.21 0.00 87 1013.5
20260903224004 85 128 0.0 1.0 0.00 0.21 0.00 86 1013.4
20260903223505 85 141 0.0 0.0 0.00 0.21 0.00 86 1013.3
20260903223004 85 167 0.0 1.0 0.00 0.21 0.00 85 1013.3
20260903222504 86 165 0.0 1.0 0.00 0.21 0.00 84 1013.2
20260903222004 86 158 0.0 2.0 0.00 0.21 0.00 83 1013.2
20260903220505 86 352 0.0 0.0 0.00 0.21 0.00 80 1013.4
20260903220004 86 42 0.0 0.0 0.00 0.21 0.00 80 1013.3
20260903215505 86 42 0.0 0.0 0.00 0.21 0.00 80 1013.3
20260903215004 86 42 0.0 1.0 0.00 0.21 0.00 80 1013.4
20260903214503 87 42 0.0 1.0 0.00 0.21 0.00 79 1013.3
20260903214005 87 70 0.0 3.0 0.00 0.21 0.00 78 1013.2
20260903213004 88 14 0.0 3.0 0.00 0.21 0.00 77 1013.5
20260903212504 88 292 1.0 3.0 0.00 0.21 0.00 77 1013.4
20260903212004 88 107 0.0 3.0 0.00 0.21 0.00 76 1013.4
20260903211504 88 334 1.0 3.0 0.00 0.21 0.00 76 1013.5
20260903211004 89 39 1.0 3.0 0.00 0.21 0.00 78 1013.6
20260903210504 89 245 0.0 3.0 0.00 0.21 0.00 78 1013.6
20260903205504 88 75 0.0 5.0 0.00 0.21 0.00 79 1013.6
20260903205004 88 137 0.0 6.0 0.00 0.21 0.00 79 1013.7
20260903204504 88 255 1.0 6.0 0.00 0.21 0.00 79 1013.9
20260903204005 88 54 1.0 5.0 0.00 0.21 0.00 79 1013.9
20260903203504 88 166 2.0 5.0 0.00 0.21 0.00 79 1013.9
20260903203004 89 348 1.0 6.0 0.00 0.21 0.00 78 1013.9
20260903202004 88 131 2.0 3.0 0.00 0.21 0.00 79 1014.1
20260903201004 88 39 1.0 6.0 0.00 0.21 0.00 79 1014.0
20260903200504 89 323 1.0 5.0 0.00 0.21 0.00 80 1014.0
20260903200004 89 54 1.0 5.0 0.00 0.22 0.00 80 1014.1
20260903195504 88 112 1.0 5.0 0.00 0.22 0.00 79 1014.1
20260903195004 88 124 1.0 5.0 0.00 0.22 0.00 80 1014.1
20260903194504 88 157 2.0 5.0 0.00 0.22 0.00 80 1014.1
20260903194004 88 61 1.0 5.0 0.00 0.22 0.00 80 1014.2
20260903193504 88 236 1.0 7.0 0.00 0.22 0.00 82 1014.2
20260903193004 88 205 2.0 7.0 0.00 0.22 0.00 81 1014.3
20260903192504 88 150 1.0 6.0 0.00 0.22 0.00 82 1014.5
20260903192004 88 338 1.0 6.0 0.00 0.22 0.00 82 1014.6
20260903191503 87 278 1.0 6.0 0.00 0.22 0.00 82 1014.7
20260903191004 87 261 1.0 5.0 0.00 0.22 0.00 83 1014.7
20260903190503 87 28 1.0 7.0 0.00 0.22 0.00 83 1014.6
20260903190005 87 104 2.0 7.0 0.00 0.22 0.00 82 1014.6
20260903185504 87 244 2.0 7.0 0.00 0.22 0.00 82 1014.8
20260903184504 86 128 1.0 3.0 0.00 0.22 0.00 85 1014.7
20260903184004 85 135 0.0 3.0 0.00 0.22 0.00 85 1014.8
20260903183504 85 263 1.0 3.0 0.00 0.22 0.00 85 1014.9
20260903183004 85 33 0.0 7.0 0.00 0.22 0.00 85 1015.1
20260903182504 85 246 0.0 7.0 0.00 0.22 0.00 84 1015.1
20260903182004 85 153 1.0 5.0 0.00 0.22 0.00 85 1015.2
20260903181504 85 16 1.0 6.0 0.00 0.22 0.00 86 1015.3
20260903181004 85 290 2.0 6.0 0.00 0.22 0.00 85 1015.3
20260903180004 85 15 1.0 7.0 0.00 0.22 0.00 86 1015.4
20260903175504 85 122 1.0 7.0 0.00 0.22 0.00 85 1015.4
20260903174504 86 124 1.0 6.0 0.00 0.22 0.00 86 1015.3
20260903173004 85 267 1.0 5.0 0.00 0.22 0.00 85 1015.5
20260903172504 85 351 0.0 3.0 0.00 0.22 0.00 86 1015.7
20260903172004 85 47 0.0 7.0 0.00 0.22 0.00 86 1015.7
20260903171004 85 295 1.0 3.0 0.00 0.22 0.00 86 1015.8
20260903170503 85 15 0.0 3.0 0.00 0.22 0.00 86 1015.7
20260903170004 85 244 1.0 8.0 0.00 0.22 0.00 86 1015.6